Location: El Mouella
(16.4949°N, 9.1594°W)
Time: 02:13:36
(UTC+00:00)

H-2A R/B - Pass Details

Date: 25 September 2020
Orbit: 734 x 836 km, 98.2° (Epoch: 20 October)

Event Time Altitude Azimuth Distance (km) Brightness Sun altitude
Exits shadow 20:32:03 26° 206° (SSW) 1,428 3.5 -30.0°
Maximum altitude 20:34:20 42° 260° (W) 1,047 3.0 -30.6°
Drops below altitude 10° 20:39:03 10° 331° (NNW) 2,275 4.8 -31.7°
Sets 20:41:29 0° 338° (NNW) 3,216 5.6 -32.2°
